Hourly Weather Kleczany

Today, 21 April, Wednesday

Time Temperature Precipitation Wind Pressure Humidity
00:00 +7°C° 0 mm 1 mps 739 mmHg 81%
01:00 +5°C° 0 mm 2 mps 739 mmHg 83%
02:00 +5°C° 0 mm 2 mps 739 mmHg 84%
03:00 +5°C° 0 mm 2 mps 739 mmHg 85%
04:00 +5°C° 0 mm 2 mps 739 mmHg 86%
05:00 +6°C° 0 mm 2 mps 739 mmHg 82%
06:00 +7°C° 0 mm 2 mps 739 mmHg 77%
07:00 +9°C° 0 mm 3 mps 739 mmHg 73%
08:00 +10°C° 0.2 mm 3 mps 739 mmHg 69%
09:00 +11°C° 0.2 mm 4 mps 739 mmHg 64%
10:00 +13°C° 0.2 mm 4 mps 739 mmHg 60%
11:00 +13°C° 0.5 mm 4 mps 739 mmHg 59%
12:00 +14°C° 0.5 mm 5 mps 739 mmHg 58%
13:00 +14°C° 0.5 mm 5 mps 738 mmHg 57%
14:00 +14°C° 0.7 mm 5 mps 738 mmHg 61%
15:00 +14°C° 0.7 mm 4 mps 738 mmHg 65%
16:00 +13°C° 0.7 mm 4 mps 738 mmHg 70%
17:00 +12°C° 0.4 mm 4 mps 738 mmHg 74%
18:00 +10°C° 0.4 mm 3 mps 738 mmHg 78%
19:00 +9°C° 0.4 mm 3 mps 738 mmHg 82%
20:00 +8°C° 0 mm 2 mps 738 mmHg 83%
21:00 +8°C° 0 mm 2 mps 739 mmHg 85%
22:00 +7°C° 0 mm 2 mps 739 mmHg 86%
23:00 +7°C° 0.1 mm 2 mps 739 mmHg 87%

Tomorrow, 22 April, Thursday

Time Temperature Precipitation Wind Pressure Humidity
00:00 +7°C° 0.1 mm 2 mps 739 mmHg 88%
01:00 +7°C° 0.1 mm 3 mps 739 mmHg 89%
02:00 +7°C° 0.1 mm 3 mps 739 mmHg 90%
03:00 +7°C° 0.1 mm 3 mps 739 mmHg 91%
04:00 +7°C° 0.1 mm 3 mps 739 mmHg 92%
05:00 +7°C° 0.3 mm 3 mps 739 mmHg 92%
06:00 +8°C° 0.3 mm 3 mps 739 mmHg 91%
07:00 +8°C° 0.3 mm 3 mps 739 mmHg 90%
08:00 +8°C° 0.3 mm 4 mps 739 mmHg 86%
09:00 +8°C° 0.3 mm 5 mps 740 mmHg 81%
10:00 +9°C° 0.3 mm 5 mps 740 mmHg 76%
11:00 +7°C° 0.4 mm 5 mps 740 mmHg 81%
12:00 +5°C° 0.4 mm 5 mps 741 mmHg 85%
13:00 +2°C° 0.4 mm 5 mps 741 mmHg 89%
14:00 +3°C° 0.4 mm 5 mps 741 mmHg 85%
15:00 +4°C° 0.4 mm 4 mps 741 mmHg 81%
16:00 +5°C° 0.4 mm 4 mps 741 mmHg 77%
17:00 +4°C° 0 mm 3 mps 742 mmHg 80%
18:00 +3°C° 0 mm 3 mps 742 mmHg 82%
19:00 +3°C° 0 mm 3 mps 742 mmHg 85%
20:00 +3°C° 0 mm 2 mps 742 mmHg 85%
21:00 +3°C° 0 mm 2 mps 742 mmHg 85%
22:00 +2°C° 0 mm 2 mps 742 mmHg 84%
23:00 +2°C° 0 mm 2 mps 742 mmHg 85%

Day after tomorrow, 23 April, Friday

Time Temperature Precipitation Wind Pressure Humidity
00:00 +1°C° 0 mm 2 mps 742 mmHg 85%
01:00 +1°C° 0 mm 2 mps 742 mmHg 86%
02:00 +1°C° 0 mm 2 mps 743 mmHg 87%
03:00 0°C° 0 mm 3 mps 743 mmHg 88%
04:00 -1°C° 0 mm 3 mps 743 mmHg 89%
05:00 0°C° 0 mm 4 mps 743 mmHg 83%
06:00 +1°C° 0 mm 4 mps 744 mmHg 78%
07:00 +2°C° 0 mm 5 mps 744 mmHg 72%
08:00 +3°C° 0.1 mm 5 mps 744 mmHg 66%
09:00 +4°C° 0.1 mm 6 mps 744 mmHg 59%
10:00 +5°C° 0.1 mm 6 mps 744 mmHg 53%
11:00 +7°C° 0.1 mm 6 mps 744 mmHg 50%
12:00 +7°C° 0.1 mm 6 mps 743 mmHg 48%
13:00 +8°C° 0.1 mm 6 mps 743 mmHg 46%
14:00 +7°C° 0.5 mm 6 mps 743 mmHg 57%
15:00 +5°C° 0.5 mm 6 mps 743 mmHg 68%
16:00 +3°C° 0.5 mm 6 mps 743 mmHg 80%
17:00 +3°C° 0.1 mm 6 mps 744 mmHg 80%
18:00 +2°C° 0.1 mm 5 mps 744 mmHg 80%
19:00 +1°C° 0.1 mm 5 mps 744 mmHg 81%
20:00 0°C° 0 mm 4 mps 744 mmHg 84%
21:00 0°C° 0 mm 4 mps 745 mmHg 88%
22:00 0°C° 0 mm 3 mps 745 mmHg 92%
23:00 0°C° 0.1 mm 3 mps 745 mmHg 93%

24 April, Saturday

Time Temperature Precipitation Wind Pressure Humidity
00:00 0°C° 0.1 mm 3 mps 745 mmHg 93%
01:00 0°C° 0.1 mm 3 mps 745 mmHg 94%
02:00 -1°C° 0.1 mm 4 mps 745 mmHg 94%
03:00 -2°C° 0.1 mm 4 mps 745 mmHg 93%
04:00 -2°C° 0.1 mm 5 mps 746 mmHg 93%
05:00 -1°C° 0 mm 5 mps 746 mmHg 87%
06:00 0°C° 0 mm 5 mps 746 mmHg 81%
07:00 +1°C° 0 mm 5 mps 746 mmHg 76%
08:00 +2°C° 0 mm 6 mps 746 mmHg 66%
09:00 +3°C° 0 mm 6 mps 746 mmHg 57%
10:00 +5°C° 0 mm 6 mps 746 mmHg 48%
11:00 +5°C° 0 mm 6 mps 746 mmHg 46%
12:00 +7°C° 0 mm 6 mps 746 mmHg 44%
13:00 +7°C° 0 mm 6 mps 745 mmHg 43%
14:00 +7°C° 0 mm 5 mps 745 mmHg 45%
15:00 +7°C° 0 mm 5 mps 745 mmHg 47%
16:00 +7°C° 0 mm 5 mps 745 mmHg 48%
17:00 +6°C° 0 mm 4 mps 745 mmHg 55%
18:00 +4°C° 0 mm 3 mps 745 mmHg 61%
19:00 +4°C° 0 mm 2 mps 745 mmHg 67%
20:00 +4°C° 0.1 mm 2 mps 745 mmHg 75%
21:00 +2°C° 0.1 mm 3 mps 745 mmHg 83%
22:00 +1°C° 0.1 mm 3 mps 746 mmHg 92%
23:00 +1°C° 0 mm 3 mps 746 mmHg 92%

25 April, Sunday

Time Temperature Precipitation Wind Pressure Humidity
00:00 +2°C° 0 mm 2 mps 745 mmHg 93%
01:00 +2°C° 0 mm 2 mps 745 mmHg 94%
02:00 +1°C° 0 mm 2 mps 746 mmHg 94%
03:00 -1°C° 0 mm 2 mps 746 mmHg 95%
04:00 -1°C° 0 mm 2 mps 746 mmHg 95%
05:00 -1°C° 0.1 mm 2 mps 746 mmHg 89%
06:00 0°C° 0.1 mm 3 mps 746 mmHg 83%
07:00 +1°C° 0.1 mm 3 mps 747 mmHg 77%
08:00 +2°C° 0.1 mm 3 mps 747 mmHg 68%
09:00 +3°C° 0.1 mm 4 mps 747 mmHg 60%
10:00 +5°C° 0.1 mm 5 mps 747 mmHg 51%
11:00 +5°C° 0.2 mm 5 mps 746 mmHg 51%
12:00 +5°C° 0.2 mm 5 mps 746 mmHg 51%
13:00 +5°C° 0.2 mm 6 mps 746 mmHg 51%
14:00 +5°C° 0.2 mm 6 mps 746 mmHg 54%
15:00 +4°C° 0.2 mm 6 mps 745 mmHg 56%
16:00 +4°C° 0.2 mm 6 mps 745 mmHg 59%
17:00 +5°C° 0.2 mm 5 mps 745 mmHg 63%
18:00 +4°C° 0.2 mm 4 mps 745 mmHg 67%
19:00 +3°C° 0.2 mm 3 mps 745 mmHg 71%
20:00 +2°C° 0.1 mm 3 mps 745 mmHg 76%
21:00 +1°C° 0.1 mm 3 mps 745 mmHg 80%
22:00 +1°C° 0.1 mm 2 mps 746 mmHg 84%
23:00 +1°C° 0 mm 2 mps 746 mmHg 86%

26 April, Monday

Time Temperature Precipitation Wind Pressure Humidity
00:00 -1°C° 0 mm 2 mps 746 mmHg 87%
01:00 -2°C° 0 mm 2 mps 746 mmHg 88%
02:00 -2°C° 0 mm 2 mps 746 mmHg 88%
03:00 -2°C° 0 mm 2 mps 746 mmHg 89%
04:00 -3°C° 0 mm 2 mps 746 mmHg 89%
05:00 -1°C° 0 mm 2 mps 746 mmHg 81%
06:00 0°C° 0 mm 3 mps 746 mmHg 73%
07:00 +2°C° 0 mm 3 mps 746 mmHg 65%
08:00 +3°C° 0 mm 3 mps 746 mmHg 58%
09:00 +5°C° 0 mm 3 mps 746 mmHg 50%
10:00 +6°C° 0 mm 4 mps 746 mmHg 42%
11:00 +8°C° 0 mm 3 mps 746 mmHg 42%
12:00 +9°C° 0 mm 3 mps 745 mmHg 41%
13:00 +10°C° 0 mm 3 mps 745 mmHg 41%
14:00 +10°C° 0 mm 3 mps 745 mmHg 41%
15:00 +10°C° 0 mm 2 mps 744 mmHg 42%
16:00 +10°C° 0 mm 2 mps 744 mmHg 43%
17:00 +8°C° 0 mm 2 mps 744 mmHg 48%
18:00 +7°C° 0 mm 1 mps 744 mmHg 54%
19:00 +6°C° 0 mm 1 mps 743 mmHg 59%
20:00 +5°C° 0 mm 1 mps 743 mmHg 61%
21:00 +5°C° 0 mm 1 mps 743 mmHg 63%
22:00 +3°C° 0 mm 2 mps 743 mmHg 65%
23:00 +3°C° 0 mm 2 mps 743 mmHg 68%
Show more

We Need Your Consent

Meteoprog and our Service Providers may store and access personal data such as cookies, device identifiers or other similar technologies on your device and process such data to personalise content and ads, as well as provide social media features and to analyse the traffic.

  • Store and/or access information on your device

    Cookies, device identifiers or other information can be stored or accessed on your device for the purposes indicated above.

  • Personalised ads and content, ad and content measurement, audience insights, and products development

    Ads and content can be personalised based on a profile. More data can be added to better personalise ads and content. Ad and content performance can be measured. Insights about the audience who saw the ads and content can be derived. Such data can be used to develop or improve user’s experience, systems and software.

By clicking ‘I Agree’ you will allow the use of indicated cookies, device identifiers, web beacons or other similar technologies. Your settings can be changed in the browser on your device.

For certain purposes, legitimate interests may be relied on, rather than consent. You can read more about this in our Privacy and Cookie Policy.